DW2789 Weather Reports


Display with metric or nautical units.
time (UTC)temp
F
wind
direction
speed
MPH
gust
MPH
rain 1hr
in
rain 24hr
in
rain mn
in
humidity
%
barometer
mb
20260831051009 57 45 0.0 0.0 0.00 0.00 0.00 57 1015.1
20260831045930 57 45 0.0 0.0 0.00 0.00 0.00 57 1015.2
20260831044934 57 45 0.0 0.0 0.00 0.00 0.00 57 1015.2
20260831043958 57 45 0.0 0.0 0.00 0.00 0.00 57 1015.2
20260831042943 57 45 0.0 0.0 0.00 0.00 0.00 57 1015.2
20260831041929 58 45 0.0 0.0 0.00 0.00 0.00 56 1015.2
20260831040935 58 45 0.0 0.0 0.00 0.00 0.00 56 1015.3
20260831035937 59 45 0.0 0.0 0.00 0.00 0.00 56 1015.2
20260831034945 60 45 0.0 0.0 0.00 0.00 0.00 55 1015.2
20260831033948 61 45 0.0 0.0 0.00 0.00 0.00 53 1015.1
20260831032931 62 45 0.0 0.0 0.00 0.00 0.00 51 1015.1
20260831031934 64 45 0.0 0.0 0.00 0.00 0.00 48 1015.1
20260831030942 65 45 0.0 0.0 0.00 0.00 0.00 47 1015.0
20260831025944 66 45 0.0 0.0 0.00 0.00 0.00 44 1015.0
20260831024948 68 45 0.0 0.0 0.00 0.00 0.00 45 1014.9
20260831023932 71 45 0.0 0.0 0.00 0.00 0.00 40 1014.7
20260831021952 74 45 0.0 0.0 0.00 0.00 0.00 40 1014.6
20260831020955 75 45 0.0 0.0 0.00 0.00 0.00 38 1014.5
20260831015936 75 45 0.0 0.0 0.00 0.00 0.00 39 1014.6
20260831014939 75 45 0.0 0.0 0.00 0.00 0.00 37 1014.4
20260831013929 76 45 0.0 0.0 0.00 0.00 0.00 37 1014.5
20260831012935 77 45 0.0 0.0 0.00 0.00 0.00 39 1014.6
20260831011941 77 45 0.0 0.0 0.00 0.00 0.00 36 1014.6
20260831010945 77 45 0.0 0.0 0.00 0.00 0.00 37 1014.7
20260831005932 77 45 0.0 0.0 0.00 0.00 0.00 37 1014.8
20260831004936 77 45 0.0 0.0 0.00 0.00 0.00 36 1014.8
20260831003940 78 45 0.0 0.0 0.00 0.00 0.00 36 1014.9
20260831002943 77 45 0.0 1.0 0.00 0.00 0.00 38 1014.9
20260831002005 77 45 3.0 8.0 0.00 0.00 0.00 34 1014.9
20260831000932 77 45 0.0 4.0 0.00 0.00 0.00 38 1014.9
20260830235934 77 45 0.0 6.0 0.00 0.00 0.00 38 1015.0
20260830234937 76 45 1.0 7.0 0.00 0.00 0.00 36 1015.2
20260830232937 76 45 5.0 10.0 0.00 0.00 0.00 35 1015.3
20260830231944 77 45 0.0 8.0 0.00 0.00 0.00 37 1015.3
20260830230946 77 45 0.0 0.0 0.00 0.00 0.00 34 1015.3
20260830225949 76 45 0.0 7.0 0.00 0.00 0.00 33 1015.3
20260830224932 76 45 0.0 6.0 0.00 0.00 0.00 34 1015.5
20260830223942 75 45 3.0 10.0 0.00 0.00 0.00 34 1015.5
20260830222945 75 45 5.0 13.0 0.00 0.00 0.00 35 1015.5
20260830221931 75 45 0.0 10.0 0.00 0.00 0.00 35 1015.7
20260830220936 74 45 6.0 12.0 0.00 0.00 0.00 35 1015.9
20260830220001 74 46 9.0 12.0 0.00 0.00 0.00 35 1016.1
20260830214947 74 46 7.0 13.0 0.00 0.00 0.00 36 1016.1
20260830213950 74 46 6.0 12.0 0.00 0.00 0.00 37 1016.2
20260830212934 74 46 4.0 12.0 0.00 0.00 0.00 37 1016.3
20260830212001 74 45 8.0 13.0 0.00 0.00 0.00 38 1016.4
20260830210947 73 46 6.0 12.0 0.00 0.00 0.00 38 1016.4
20260830205931 73 46 2.0 8.0 0.00 0.00 0.00 42 1016.5
20260830204007 72 46 0.0 11.0 0.00 0.00 0.00 40 1016.7
20260830202930 71 46 9.0 13.0 0.00 0.00 0.00 38 1016.8
20260830201937 71 46 7.0 12.0 0.00 0.00 0.00 40 1016.9
20260830200940 71 46 7.0 12.0 0.00 0.00 0.00 39 1017.0
20260830195946 71 47 5.0 13.0 0.00 0.00 0.00 42 1017.0
20260830194949 71 47 3.0 10.0 0.00 0.00 0.00 41 1017.0
20260830193958 70 47 6.0 13.0 0.00 0.00 0.00 40 1017.2
20260830192941 70 46 0.0 14.0 0.00 0.00 0.00 45 1017.2
20260830192003 69 46 0.0 0.0 0.00 0.00 0.00 43 1017.4
20260830190944 69 47 6.0 12.0 0.00 0.00 0.00 44 1017.6
20260830185927 68 47 6.0 12.0 0.00 0.00 0.00 44 1017.7
20260830184937 67 47 3.0 12.0 0.00 0.00 0.00 45 1017.8
20260830183941 67 47 0.0 13.0 0.00 0.00 0.00 47 1018.0
20260830182944 66 47 2.0 10.0 0.00 0.00 0.00 45 1018.1
20260830181946 65 46 8.0 14.0 0.00 0.00 0.00 46 1018.3
20260830180954 65 46 5.0 13.0 0.00 0.00 0.00 46 1018.3
20260830175936 65 48 6.0 12.0 0.00 0.00 0.00 50 1018.4
20260830174942 64 48 8.0 14.0 0.00 0.00 0.00 49 1018.5
20260830173946 64 48 7.0 16.0 0.00 0.00 0.00 49 1018.6
20260830172934 64 48 7.0 14.0 0.00 0.00 0.00 48 1018.5
20260830171935 63 48 7.0 17.0 0.00 0.00 0.00 50 1018.6
20260830165931 63 49 4.0 15.0 0.00 0.00 0.00 52 1018.7
20260830164935 63 48 7.0 11.0 0.00 0.00 0.00 51 1018.8
20260830163942 62 49 2.0 13.0 0.00 0.00 0.00 52 1018.9
20260830162945 62 48 5.0 13.0 0.00 0.00 0.00 51 1018.8
20260830161948 62 49 6.0 12.0 0.00 0.00 0.00 52 1018.8
20260830160930 61 49 4.0 9.0 0.00 0.00 0.00 53 1018.9
20260830155938 60 49 2.0 14.0 0.00 0.00 0.00 55 1018.9
20260830154942 60 49 7.0 13.0 0.00 0.00 0.00 55 1018.8
20260830153944 59 49 9.0 13.0 0.00 0.00 0.00 56 1018.9
20260830152930 58 49 3.0 8.0 0.00 0.00 0.00 58 1018.8
20260830151935 57 49 1.0 12.0 0.00 0.00 0.00 59 1018.8
20260830150937 56 49 5.0 12.0 0.00 0.00 0.00 62 1018.9
20260830145943 53 48 0.0 0.0 0.00 0.00 0.00 68 1018.9
20260830144946 53 48 0.0 0.0 0.00 0.00 0.00 67 1018.7
20260830143933 53 48 0.0 0.0 0.00 0.00 0.00 68 1018.7
20260830142955 52 48 0.0 0.0 0.00 0.00 0.00 69 1018.7
20260830140934 51 48 0.0 0.0 0.00 0.00 0.00 71 1018.8
20260830135937 50 49 0.0 0.0 0.00 0.00 0.00 73 1018.8
20260830134944 50 49 0.0 0.0 0.00 0.00 0.00 73 1018.7
20260830133927 50 49 0.0 0.0 0.00 0.00 0.00 73 1018.7
20260830132932 50 49 0.0 0.0 0.00 0.00 0.00 73 1018.8
20260830131959 49 48 0.0 0.0 0.00 0.00 0.00 73 1018.7
20260830131001 49 49 0.0 0.0 0.00 0.00 0.00 74 1018.7
20260830125947 49 48 0.0 0.0 0.00 0.00 0.00 74 1018.6
20260830124933 49 48 0.0 0.0 0.00 0.00 0.00 74 1018.5
20260830123935 49 49 0.0 0.0 0.00 0.00 0.00 74 1018.4
20260830122937 49 49 0.0 0.0 0.00 0.00 0.00 74 1018.4
20260830121946 49 48 0.0 0.0 0.00 0.00 0.00 73 1018.5
20260830120931 50 49 0.0 0.0 0.00 0.00 0.00 72 1018.4
20260830115934 50 49 0.0 0.0 0.00 0.00 0.00 72 1018.4
20260830114936 50 48 0.0 0.0 0.00 0.00 0.00 72 1018.4
20260830113943 50 49 0.0 0.0 0.00 0.00 0.00 72 1018.2
20260830112929 51 49 0.0 0.0 0.00 0.00 0.00 70 1018.2
20260830111933 51 49 0.0 0.0 0.00 0.00 0.00 70 1018.2
20260830110937 51 48 0.0 0.0 0.00 0.00 0.00 69 1018.1
20260830105945 52 49 0.0 0.0 0.00 0.00 0.00 68 1018.0
20260830105006 52 49 0.0 0.0 0.00 0.00 0.00 68 1018.0
20260830103946 52 49 0.0 0.0 0.00 0.00 0.00 67 1017.9
20260830102933 53 49 0.0 0.0 0.00 0.00 0.00 66 1017.9
20260830101939 54 49 0.0 0.0 0.00 0.00 0.00 65 1017.7
20260830100942 54 49 0.0 0.0 0.00 0.00 0.00 64 1017.6
20260830095926 55 49 0.0 0.0 0.00 0.00 0.00 62 1017.6
20260830094933 55 49 0.0 0.0 0.00 0.00 0.00 62 1017.6
20260830093939 56 49 0.0 0.0 0.00 0.00 0.00 61 1017.6
20260830092942 56 49 0.0 0.0 0.00 0.00 0.00 61 1017.5
20260830091948 57 49 0.0 4.0 0.00 0.00 0.00 59 1017.4
20260830090932 57 48 2.0 11.0 0.00 0.00 0.00 59 1017.4
20260830085939 58 48 5.0 11.0 0.00 0.00 0.00 58 1017.4
20260830084941 58 49 4.0 13.0 0.00 0.00 0.00 58 1017.4
20260830083945 58 48 4.0 10.0 0.00 0.00 0.00 58 1017.4
20260830082930 58 49 4.0 11.0 0.00 0.00 0.00 58 1017.3
20260830081936 58 48 4.0 13.0 0.00 0.00 0.00 58 1017.3
20260830080959 58 49 5.0 11.0 0.00 0.00 0.00 58 1017.2
20260830075941 58 49 6.0 10.0 0.00 0.00 0.00 58 1017.3
20260830074943 58 48 5.0 11.0 0.00 0.00 0.00 58 1017.2
20260830073946 58 49 5.0 10.0 0.00 0.00 0.00 58 1017.1
20260830072932 59 48 5.0 9.0 0.00 0.00 0.00 57 1017.1
20260830071937 59 48 1.0 9.0 0.00 0.00 0.00 57 1017.2
20260830070942 59 48 2.0 10.0 0.00 0.00 0.00 57 1017.2
20260830065930 59 48 3.0 8.0 0.00 0.00 0.00 56 1017.1
20260830064938 60 49 4.0 9.0 0.00 0.00 0.00 55 1017.0
20260830063945 60 49 4.0 10.0 0.00 0.00 0.00 55 1017.2
20260830063008 60 49 2.0 11.0 0.00 0.00 0.00 55 1017.1
20260830061950 60 49 6.0 10.0 0.00 0.00 0.00 54 1017.0
20260830060957 61 49 6.0 13.0 0.00 0.00 0.00 54 1017.0
20260830055936 61 49 5.0 10.0 0.00 0.00 0.00 54 1017.0
20260830054938 61 49 4.0 16.0 0.00 0.00 0.00 53 1017.1
20260830054003 61 48 7.0 14.0 0.00 0.00 0.00 53 1017.1
20260830052949 61 48 6.0 14.0 0.00 0.00 0.00 52 1017.0
20260830051935 62 48 5.0 13.0 0.00 0.00 0.00 52 1017.0